Notices

What's New in latest Release from April 7th, 2021:

- Updated Glossary, including Speed of Maximum Gust, and Total Hourly Precipitation

- Updated national and regional climate services offices contacts and prices information

- Addition of station inventory lists for 1981-2010, 1971-2000, and 1961-1990 Normals.

If you haven't already, please take our survey and provide feedback about our website: https://eccc.sondage-survey.ca/f/LanguageSelection.aspx?s=442ca660-fcf1-47c0-95a9-59707d6fd709

Hourly Data Report for April 26, 2019

MIRAMICHI RCS
NEW BRUNSWICK
Current Station Operator: ECCC - MSC

47°00'34.000" N
65°27'54.000" W
33.00 m
8100989
71744
ACQ

Download Data

Hourly Data (April 2019)
Hourly Data Report for April 26, 2019
TIME
LST
Temp Definition
°C
Dew Point Definition
°C
Rel Hum Definition
%
Precip. Amount Definition
mm

Wind Dir Definition
10's deg

Wind Spd Definition
km/h
Visibility Definition
km
Stn Press Definition
kPa
Hmdx Definition


Wind Chill Definition


Weather Definition


00:00 -1.7 -2.3 96 0.0   0   101.22     LegendNANA
01:00 -1.8 -2.4 95 0.0 0 1   101.21   -2 LegendNANA
02:00 -1.8 -2.5 95 0.0 23 4   101.22   -3 LegendNANA
03:00 -1.9 -2.4 97 0.0 24 5   101.20   -4 LegendNANA
04:00 -1.7 -2.1 97 0.0 24 4   101.22   -3 LegendNANA
05:00 -1.6 -2.0 97 0.0 23 7   101.21   -4 LegendNANA
06:00 -1.5 -2.0 97 0.0 21 10   101.23   -5 LegendNANA
07:00 -0.9 -1.3 97 0.0 20 7   101.29   -3 LegendNANA
08:00 0.3 -0.3 96 0.0 23 7   101.31     LegendNANA
09:00 1.8 0.5 91 0.0 22 9   101.28     LegendNANA
10:00 4.9 2.1 82 0.0 23 9   101.27     LegendNANA
11:00 7.8 2.2 68 0.0 23 8   101.22     LegendNANA
12:00 9.0 1.1 58 0.0 1 2   101.16     LegendNANA
13:00 9.7 2.0 58 0.0 21 8   101.15     LegendNANA
14:00 10.3 2.1 57 0.0 15 9   101.13     LegendNANA
15:00 10.5 1.9 55 0.0 17 9   101.09     LegendNANA
16:00 10.8 2.4 56 0.0 13 16   101.04     LegendNANA
17:00 10.6 3.0 60 0.0 11 15   101.06     LegendNANA
18:00 8.8 2.0 62 0.0 11 19   101.04     LegendNANA
19:00 7.2 1.0 64 0.0 12 17   101.02     LegendNANA
20:00 6.3 0.6 67 0.0 11 14   101.06     LegendNANA
21:00 5.3 1.0 74 0.0 8 11   101.06     LegendNANA
22:00 5.1 1.2 76 0.0 10 11   101.04     LegendNANA
23:00 5.0 1.2 77 0.0 10 14   100.98     LegendNANA

Notes on Data Quality.

Legend

  • E = Estimated
  • M = Missing
  • NA = Not Available*
  • [empty] = Indicates an unobserved value
Date modified: